DECAYED

CZ-6A DEB, 55870 (Decayed)

Orbit data source: Space-Track

CZ-6A DEB, 55870 was space debris in SSO originally from a launch on Fri, 11 Nov 2022 UTC launched from the Taiyaun Space Center, China (TSC). Debris objects in space refer to the collection of defunct objects orbiting the Earth. Examples of debris include non-operational satellites, rocket bodies, and fragments generated from explosions, collisions, or faulty payload assembly.

Not visible in the next 10 days
Identifier
55870, 2022-151ZS
Orbit
Decayed
Country
Flag of CNCN / PRC
Related business
Manufacturer
SAST
Mission
Decayed spacecraft
Bus & Motor
Unknown
Mass
Unknown
Launch date (UTC)
2022-11-11 (4 years ago)
Launch vehicle
Unknown
Launch site
Taiyaun Space Center, China (TSC)
Object type
Payload
Rocket body
Debris
Shape & HBR
Unknown shape, 0.1 m
Radar Cross Section
Small (<0.1 m²)

Expand to show TLE details & history
Last TLE update: 1 year ago

TLE from 1 year ago
0 CZ-6A DEB
1 55870U 22151ZS  25206.11757940  .04519995  29201-1  22741-1 0  9999
2 55870  98.5970 268.7001 0020672 259.8261 100.0674 15.86643602129145
Epoch: 2025-07-25T02:49Z
TLE epoch observation values (Epoch: 2025-07-25T02:49:18.860Z)
Latitude
-0.00007°
Longitude
-76.70164°
Altitude
317.289 km
Speed
7.716 km/s
True Right ascension
17h 54m 48s
True Declination
0° 00' 00"
Sunlit
Object was in full shadow at epoch
Visualization orbit readout
Latitude
Unknown
Longitude
Unknown
Altitude
Unknown
Speed
Unknown
Apparent Right ascension
Unknown
Apparent Declination
Unknown
Sunlit
N/A
Visualization observer readout
Local Sidereal Time
14:06:29
Azimuth
Unknown
Elevation
Unknown
Doppler factor
Unknown
Orbital elements
Apogee altitude
322.458 km
Perigee altitude
294.812 km
Semi-major axis
6,686.772 km
Eccentricity
0.00207
Inclination
98.597°
RAAN
268.7001°
Arg. of periapsis
259.8261°
True anomaly
100.30053°
Mean anomaly
100.0674°
Eccentric anomaly
100.18398°
Mean motion
3.96934 °/min
Orbital period
90.7 mins
BSTAR
0.022741
Loading maneuver chart data...
Computing Atmospheric mass density...
Loading historical data...
Loading historical data...
Loading historical data...
Loading historical data...
Loading historical data...
Loading historical data...
Loading historical data...

Documentation

Showing up to 5 results
|